This demonstration page uses our WeatherBlox Daily Observations layout. Learn more.

41.55636, -103.73856

Hourly Observations for January 16, 2019

Temp ( °F °C ) Dew Point ( °F °C ) Humidity (%) Winds ( mph kmh ) Pressure ( in mb ) Visibility ( mi km ) Precip ( " mm )
12:53 am 00:53 Clear 26 -3.3 18 -7.8 71 71 E 8 13 30.03 1017 10 16.09344 0 0
1:53 am 01:53 Clear 29 -1.7 19 -7.2 66 66 E 9 15 30.03 1017 10 16.09344 0 0
2:53 am 02:53 Cloudy 32 0 19 -7.2 59 59 E 9 15 30 1016 10 16.09344 0 0
3:53 am 03:53 Cloudy 32 0 19 -7.2 59 59 ESE 13 20 29.97 1015 10 16.09344 0 0
4:53 am 04:53 Cloudy 31 -0.6 19 -7.2 61 61 ESE 14 22 30 1016 10 16.09344 0 0
5:53 am 05:53 Cloudy 30 -1.1 19 -7.2 64 64 SSE 5 7 30.03 1017 10 16.09344 0 0
6:53 am 06:53 Cloudy 29 -1.7 20 -6.7 69 69 ESE 8 13 30.03 1017 10 16.09344 0 0
7:53 am 07:53 Cloudy 29 -1.7 20 -6.7 69 69 ESE 12 19 30 1016 10 16.09344 0 0
8:53 am 08:53 Cloudy 30 -1.1 21 -6.1 69 69 ESE 12 19 30.03 1017 10 16.09344 0 0
9:53 am 09:53 Cloudy 31 -0.6 22 -5.6 69 69 SE 8 13 30.03 1017 10 16.09344 0 0
10:53 am 10:53 Cloudy with Light Wintry Mix 32 0 24 -4.4 73 73 E 5 7 30.03 1017 10 16.09344 0.001 0.001
11:53 am 11:53 Cloudy 34 1.1 29 -1.7 82 82 SE 12 19 30 1016 10 16.09344 0.001 0.001
12:53 pm 12:53 Cloudy 36 2.2 29 -1.7 76 76 SE 6 9 29.97 1015 10 16.09344 0 0
1:53 pm 13:53 Cloudy 37 2.8 29 -1.7 73 73 Calm 29.94 1014 10 16.09344 0 0
2:34 pm 14:34 Cloudy with Light Rain 36 2 32 0 87 87 Calm 30 1016 10 16.09344 0 0
2:53 pm 14:53 Cloudy with Light Rain 36 2.2 33 0.6 89 89 Calm 29.97 1015 10 16.09344 0.01 0.254
3:53 pm 15:53 Cloudy 37 2.8 34 1.1 89 89 Calm 29.97 1015 10 16.09344 0.001 0.001
4:53 pm 16:53 Mostly Cloudy 34 1.1 33 0.6 97 97 Calm 29.97 1015 10 16.09344 0 0
5:53 pm 17:53 Partly Cloudy 30 -1.1 30 -1.1 100 100 NNW 5 7 30 1016 8 12.874752 0 0
6:53 pm 18:53 Partly Cloudy 30 -1.1 30 -1.1 100 100 N 3 6 30.03 1017 9 14.484096 0 0
7:53 pm 19:53 Clear 30 -1.1 30 -1.1 100 100 Calm 30.03 1017 7 11.265408 0 0
8:06 pm 20:06 Clear with Mist and Fog 28 -2.2 28 -2.2 100 100 Calm 30.12 1020 1.75 2.816352 0 0
8:15 pm 20:15 Clear with Freezing Fog 26 -3.3 26 -3.3 100 100 Calm 30.12 1020 0.25 0.402336 0 0
8:24 pm 20:24 Mostly Cloudy with Freezing Fog 25 -4 25 -4 100 100 Calm 30.15 1021 0.25 0.402336 0 0
8:53 pm 20:53 Clear with Freezing Fog 27 -2.8 27 -2.8 100 100 Calm 30.03 1017 0.25 0.402336 0 0
9:05 pm 21:05 Mostly Cloudy with Freezing Fog 23 -5 23 -5 100 100 WNW 5 7 30.15 1021 0.25 0.402336 0 0
9:15 pm 21:15 Clear with Freezing Fog 23 -5 23 -5 100 100 NW 6 9 30.15 1021 0.25 0.402336 0 0
9:29 pm 21:29 Clear with Freezing Fog 23 -5 23 -5 100 100 NNW 5 7 30.18 1022 0.5 0.804672 0 0
9:44 pm 21:44 Clear with Mist and Fog 23 -5 23 -5 100 100 N 5 7 30.18 1022 1.25 2.01168 0 0
9:53 pm 21:53 Clear with Mist and Fog 22 -5.6 22 -5.6 100 100 N 6 9 30.06 1018 4 6.437376 0 0
10:53 pm 22:53 Clear with Mist and Fog 24 -4.4 24 -4.4 100 100 Calm 30.09 1019 6 9.656064 0 0
11:53 pm 23:53 Clear 23 -5 22 -5.6 96 96 NNW 6 9 30.06 1018 10 16.09344 0 0

Powered by AerisWeather